Time,TemperatureF,DewpointF,PressureIn,WindDirection,WindDirectionDegrees,WindSpeedMPH,WindSpeedGustMPH,Humidity,HourlyPrecipIn,Conditions,Clouds,dailyrainin,SoftwareType,DateUTC
2013-08-01 00:03:00,67.0,65.0,29.98,South,183,0.0,1.0,92,0.00,,,0.00,,2013-08-01 04:03:00,
2013-08-01 00:13:00,67.0,65.0,29.98,South,183,0.0,1.0,92,0.00,,,0.00,,2013-08-01 04:13:00,
2013-08-01 00:22:00,67.0,65.0,29.98,South,183,0.0,1.0,92,0.00,,,0.00,,2013-08-01 04:22:00,
2013-08-01 00:33:00,67.0,65.0,29.98,South,183,0.0,1.0,92,0.00,,,0.00,,2013-08-01 04:33:00,
2013-08-01 00:53:00,68.0,67.0,29.98,SSW,192,1.0,4.0,95,0.00,,,0.00,,2013-08-01 04:53:00,
2013-08-01 01:03:00,68.0,67.0,29.98,SSW,192,1.0,4.0,95,0.00,,,0.00,,2013-08-01 05:03:00,
2013-08-01 01:13:00,68.0,67.0,29.98,SSW,192,1.0,4.0,95,0.00,,,0.00,,2013-08-01 05:13:00,
2013-08-01 01:23:00,68.0,67.0,29.98,SSW,192,1.0,4.0,95,0.00,,,0.00,,2013-08-01 05:23:00,
2013-08-01 01:33:00,68.0,67.0,29.98,SSW,192,1.0,4.0,95,0.00,,,0.00,,2013-08-01 05:33:00,
2013-08-01 01:53:00,68.0,67.0,29.96,SSW,194,2.0,6.0,96,0.00,,,0.00,,2013-08-01 05:53:00,
2013-08-01 02:02:00,68.0,67.0,29.96,SSW,194,2.0,6.0,96,0.00,,,0.00,,2013-08-01 06:02:00,
2013-08-01 02:13:00,68.0,67.0,29.96,SSW,194,2.0,6.0,96,0.00,,,0.00,,2013-08-01 06:13:00,
2013-08-01 02:23:00,68.0,67.0,29.96,SSW,194,2.0,6.0,96,0.00,,,0.00,,2013-08-01 06:23:00,
2013-08-01 02:33:00,68.0,67.0,29.96,SSW,194,2.0,6.0,96,0.00,,,0.00,,2013-08-01 06:33:00,
2013-08-01 02:53:00,68.0,67.0,29.94,SSW,194,2.0,7.0,96,0.02,,,0.02,,2013-08-01 06:53:00,
2013-08-01 03:03:00,68.0,67.0,29.94,SSW,194,2.0,7.0,96,0.02,,,0.02,,2013-08-01 07:03:00,
2013-08-01 03:12:00,68.0,67.0,29.94,SSW,194,2.0,7.0,96,0.02,,,0.02,,2013-08-01 07:12:00,
2013-08-01 03:23:00,68.0,67.0,29.94,SSW,194,2.0,7.0,96,0.02,,,0.02,,2013-08-01 07:23:00,
2013-08-01 03:32:00,68.0,67.0,29.94,SSW,194,2.0,7.0,96,0.02,,,0.02,,2013-08-01 07:32:00,
2013-08-01 03:34:00,68.0,67.0,29.92,South,184,1.0,4.0,96,0.01,,,0.03,,2013-08-01 07:34:00,
2013-08-01 04:09:00,68.0,67.0,29.92,South,184,1.0,4.0,96,0.01,,,0.03,,2013-08-01 08:09:00,
2013-08-01 04:17:00,68.0,67.0,29.92,South,184,1.0,4.0,96,0.01,,,0.03,,2013-08-01 08:17:00,
2013-08-01 04:28:00,68.0,67.0,29.92,South,184,1.0,4.0,96,0.01,,,0.03,,2013-08-01 08:28:00,
2013-08-01 04:34:00,67.0,66.0,29.90,South,171,2.0,8.0,96,0.03,,,0.06,,2013-08-01 08:34:00,
2013-08-01 05:22:00,67.0,66.0,29.90,South,171,2.0,8.0,96,0.03,,,0.06,,2013-08-01 09:22:00,
2013-08-01 05:34:00,67.0,66.0,29.88,SSE,154,0.0,1.0,96,0.08,,,0.12,,2013-08-01 09:34:00,
2013-08-01 06:23:00,67.0,66.0,29.88,SSE,154,0.0,1.0,96,0.08,,,0.12,,2013-08-01 10:23:00,
2013-08-01 06:32:00,67.0,66.0,29.88,SSE,154,0.0,1.0,96,0.08,,,0.12,,2013-08-01 10:32:00,
2013-08-01 06:34:00,67.0,66.0,29.88,SSE,154,1.0,3.0,96,0.04,,,0.15,,2013-08-01 10:34:00,
2013-08-01 07:34:00,68.0,67.0,29.88,SSE,159,0.0,4.0,97,0.01,,,0.15,,2013-08-01 11:34:00,
2013-08-01 08:12:00,68.0,67.0,29.88,SSE,159,0.0,4.0,97,0.01,,,0.15,,2013-08-01 12:12:00,
2013-08-01 08:34:00,68.0,67.0,29.88,SSE,157,0.0,1.0,97,0.00,,,0.15,,2013-08-01 12:34:00,
2013-08-01 09:09:00,68.0,67.0,29.88,SSE,157,0.0,1.0,97,0.00,,,0.15,,2013-08-01 13:09:00,
2013-08-01 09:24:00,68.0,67.0,29.88,SSE,157,0.0,1.0,97,0.00,,,0.15,,2013-08-01 13:24:00,
2013-08-01 10:21:00,70.0,69.0,29.88,SSW,197,1.0,4.0,97,0.00,,,0.15,,2013-08-01 14:21:00,
2013-08-01 10:34:00,72.0,71.0,29.87,West,261,1.0,6.0,97,0.00,,,0.15,,2013-08-01 14:34:00,
2013-08-01 11:25:00,72.0,71.0,29.87,West,261,1.0,6.0,97,0.00,,,0.15,,2013-08-01 15:25:00,
2013-08-01 11:33:00,72.0,71.0,29.87,West,261,1.0,6.0,97,0.00,,,0.15,,2013-08-01 15:33:00,
2013-08-01 11:34:00,77.0,71.0,29.86,SSW,194,2.0,5.0,82,0.00,,,0.15,,2013-08-01 15:34:00,
2013-08-01 12:03:00,77.0,71.0,29.86,SSW,194,2.0,5.0,82,0.00,,,0.15,,2013-08-01 16:03:00,
2013-08-01 12:10:00,77.0,71.0,29.86,SSW,194,2.0,5.0,82,0.00,,,0.15,,2013-08-01 16:10:00,
2013-08-01 12:22:00,77.0,71.0,29.86,SSW,194,2.0,5.0,82,0.00,,,0.15,,2013-08-01 16:22:00,
2013-08-01 12:34:00,78.0,72.0,29.84,WSW,246,2.0,9.0,82,0.00,,,0.15,,2013-08-01 16:34:00,
2013-08-01 13:00:00,78.0,72.0,29.84,WSW,246,2.0,9.0,82,0.00,,,0.15,,2013-08-01 17:00:00,
2013-08-01 13:19:00,78.0,72.0,29.84,WSW,246,2.0,9.0,82,0.00,,,0.15,,2013-08-01 17:19:00,
2013-08-01 13:34:00,79.0,72.0,29.83,NNE,20,0.0,7.0,79,0.00,,,0.15,,2013-08-01 17:34:00,
2013-08-01 14:17:00,79.0,72.0,29.83,NNE,20,0.0,7.0,79,0.00,,,0.15,,2013-08-01 18:17:00,
2013-08-01 14:34:00,81.0,72.0,29.82,WNW,284,4.0,10.0,73,0.00,,,0.15,,2013-08-01 18:34:00,
2013-08-01 15:02:00,81.0,72.0,29.82,WNW,284,4.0,10.0,73,0.00,,,0.15,,2013-08-01 19:02:00,
2013-08-01 15:17:00,81.0,72.0,29.82,WNW,284,4.0,10.0,73,0.00,,,0.15,,2013-08-01 19:17:00,
2013-08-01 15:25:00,81.0,72.0,29.82,WNW,284,4.0,10.0,73,0.00,,,0.15,,2013-08-01 19:25:00,
2013-08-01 15:34:00,82.0,72.0,29.81,WNW,284,1.0,2.0,72,0.00,,,0.15,,2013-08-01 19:34:00,
2013-08-01 16:10:00,82.0,72.0,29.81,WNW,284,1.0,2.0,72,0.00,,,0.15,,2013-08-01 20:10:00,
2013-08-01 16:17:00,82.0,72.0,29.81,WNW,284,1.0,2.0,72,0.00,,,0.15,,2013-08-01 20:17:00,
2013-08-01 16:34:00,81.0,74.0,29.80,East,100,0.0,1.0,79,0.00,,,0.15,,2013-08-01 20:34:00,
2013-08-01 16:58:00,81.0,74.0,29.80,East,100,0.0,1.0,79,0.00,,,0.15,,2013-08-01 20:58:00,
2013-08-01 17:04:00,81.0,74.0,29.80,East,100,0.0,1.0,79,0.00,,,0.15,,2013-08-01 21:04:00,
2013-08-01 17:14:00,81.0,74.0,29.80,East,100,0.0,1.0,79,0.00,,,0.15,,2013-08-01 21:14:00,
2013-08-01 17:28:00,81.0,74.0,29.80,East,100,0.0,1.0,79,0.00,,,0.15,,2013-08-01 21:28:00,
2013-08-01 17:34:00,78.0,73.0,29.80,East,101,0.0,0.0,85,0.00,,,0.15,,2013-08-01 21:34:00,
2013-08-01 17:53:00,78.0,73.0,29.80,East,101,0.0,0.0,85,0.00,,,0.15,,2013-08-01 21:53:00,
2013-08-01 18:12:00,78.0,73.0,29.80,East,101,0.0,0.0,85,0.00,,,0.15,,2013-08-01 22:12:00,
2013-08-01 18:23:00,78.0,73.0,29.80,East,101,0.0,0.0,85,0.00,,,0.15,,2013-08-01 22:23:00,
2013-08-01 19:00:00,78.0,75.0,29.79,East,101,0.0,0.0,90,0.00,,,0.15,,2013-08-01 23:00:00,
2013-08-01 19:12:00,78.0,75.0,29.79,East,101,0.0,0.0,90,0.00,,,0.15,,2013-08-01 23:12:00,
2013-08-01 19:18:00,78.0,75.0,29.79,East,101,0.0,0.0,90,0.00,,,0.15,,2013-08-01 23:18:00,
2013-08-01 19:25:00,78.0,75.0,29.79,East,101,0.0,0.0,90,0.00,,,0.15,,2013-08-01 23:25:00,
2013-08-01 19:33:00,78.0,75.0,29.79,East,101,0.0,0.0,90,0.00,,,0.15,,2013-08-01 23:33:00,
2013-08-01 19:34:00,77.0,74.0,30.32,NNE,30,0.0,1.0,90,0.00,,,0.15,,2013-08-01 23:34:00,
2013-08-01 20:09:00,77.0,74.0,30.32,NNE,30,0.0,1.0,90,0.00,,,0.15,,2013-08-02 00:09:00,
2013-08-01 20:19:00,77.0,74.0,30.32,NNE,30,0.0,1.0,90,0.00,,,0.15,,2013-08-02 00:19:00,
2013-08-01 21:02:00,75.0,72.0,29.83,NNW,337,0.0,0.0,89,0.00,,,0.15,,2013-08-02 01:02:00,
2013-08-01 21:18:00,75.0,72.0,29.83,NNW,337,0.0,0.0,89,0.00,,,0.15,,2013-08-02 01:18:00,
2013-08-01 21:30:00,75.0,72.0,29.83,NNW,337,0.0,0.0,89,0.00,,,0.15,,2013-08-02 01:30:00,
2013-08-01 22:02:00,74.0,71.0,29.83,NNW,335,2.0,5.0,91,0.00,,,0.15,,2013-08-02 02:02:00,
2013-08-01 22:09:00,74.0,71.0,29.83,NNW,335,2.0,5.0,91,0.00,,,0.15,,2013-08-02 02:09:00,
2013-08-01 22:18:00,74.0,71.0,29.83,NNW,335,2.0,5.0,91,0.00,,,0.15,,2013-08-02 02:18:00,
2013-08-01 22:28:00,74.0,71.0,29.83,NNW,335,2.0,5.0,91,0.00,,,0.15,,2013-08-02 02:28:00,
2013-08-01 23:11:00,73.0,70.0,29.83,NNW,329,0.0,2.0,91,0.00,,,0.15,,2013-08-02 03:11:00,
2013-08-01 23:23:00,73.0,70.0,29.83,NNW,329,0.0,2.0,91,0.00,,,0.15,,2013-08-02 03:23:00,
2013-08-01 23:42:00,70.0,66.0,29.83,NW,309,0.0,2.0,87,0.00,,,0.15,,2013-08-02 03:42:00,